[[{"header":{"parameterUnit":"m.s-1","parameterCategory":2,"la1":30.2991,"la2":30.254,"lo1":-89.0895,"lo2":-89.0444,"dy":0.0017,"dx":0.0017,"nx":28,"ny":28,"refTime":"2025-05-19T21:00:00:Z","depth":"0","parameterNumber":2,"parameterNumberName":"U-component_of_CURRENTS"},"data":[0,0,0,0,0,0,0,0,0,0,0,0,0,0,0,0,0,0,0,0,0,0,0,0,0,0,0,0,0,0,0,0,0,0,0,0,0,0,0,0,0,0,0,0,0,0,0,0,0,0,0,0,0,0,0,0,0,0,0.1444,0.1444,0,0.1474,0.1474,0.1475,0.1474,0.1473,0.1473,0.1473,0.1519,0.152,0.1522,0,0,0,0,0,0,0,0,0,0,0,0,0,0.1444,0.1443,0.1444,0.1444,0.1445,0.1474,0.1474,0.1475,0.1474,0.1473,0.1473,0.1472,0.1518,0.152,0.1522,0,0,0,0,0,0,0,0,0,0,0,0,0,0.1455,0.1443,0.1444,0.1448,0.1448,0.1474,0.1474,0.1475,0.1474,0.1473,0.1473,0.1472,0.1518,0.152,0.1522,0.155,0,0,0.153,0.1531,0,0,0,0,0,0,0,0,0.1455,0.1455,0.1447,0.1448,0.1448,0.147,0.1491,0.1501,0.1474,0.1464,0.1473,0.1472,0.1504,0.1508,0.1515,0.1552,0.1554,0.153,0.1532,0.1533,0.1533,0,0,0,0,0,0,0,0.1454,0.1455,0.1456,0.1447,0.1448,0.1468,0.1468,0.1493,0.1488,0.1465,0.1465,0.1469,0.1505,0.1512,0.1516,0.1554,0.153,0.1532,0.1534,0.1535,0.1656,0.1657,0,0,0,0,0,0,0.1448,0.1453,0.1455,0.1457,0.145,0.1468,0.1469,0.1463,0.1487,0.149,0.1469,0.1469,0.1508,0.1513,0.1517,0.1589,0.1533,0.1535,0.1536,0.1654,0.1656,0.1658,0,0,0,0,0,0,0.1448,0.1447,0.1454,0.1456,0.1459,0.1468,0.1463,0.1464,0.1471,0.149,0.1493,0.1474,0.1508,0.1514,0.155,0.1589,0.1536,0.1538,0.1652,0.1654,0.1657,0.1707,0,0,0,0,0,0,0.1447,0.1447,0.1446,0.1456,0.1458,0.1477,0.1463,0.1465,0.1474,0.1474,0.1496,0.1499,0.1508,0.1547,0.1552,0.1591,0.154,0.165,0.1653,0.1656,0.1703,0.1711,0.1718,0,0,0,0,0,0.1447,0.1458,0.1445,0.1446,0.1454,0.1477,0.1481,0.1486,0.1475,0.1488,0.1503,0.1498,0.1572,0.155,0.1556,0.1597,0.1648,0.1652,0.1656,0.17,0.171,0.1718,0,0,0,0,0,0,0.1465,0.1459,0.1445,0.1454,0.1464,0.1477,0.1493,0.1488,0.1509,0.1508,0.1517,0.1524,0.1572,0.1577,0.1552,0.1642,0.1611,0.1617,0.1642,0.1652,0.1659,0.1658,0.1542,0,0,0,0,0,0.1464,0.1467,0.1466,0.1475,0.1478,0.1482,0.1492,0.1492,0.1509,0.1516,0.1527,0.1552,0.1595,0.1614,0.1642,0.1689,0.17,0.1721,0.1728,0.1734,0.1739,0.1796,0.1809,0.1671,0.1671,0.1671,0,0,0.1477,0.1472,0.1476,0.1478,0.1485,0.1499,0.1487,0.1505,0.1523,0.152,0.1549,0.1575,0.1612,0.1668,0.169,0.1676,0.178,0.1739,0.1744,0.1746,0.1802,0.1815,0.1827,0.1674,0.1673,0.1673,0,0,0.1502,0.1495,0.1501,0.1508,0.1513,0.152,0.1523,0.1531,0.1542,0.1571,0.1587,0.1634,0.1672,0.1721,0.1749,0.1815,0.1815,0.1824,0.1864,0.192,0.1932,0.1942,0.197,0.1983,0.183,0.183,0.183,0,0.1511,0.1513,0.1512,0.1517,0.1526,0.1528,0.154,0.1561,0.158,0.1596,0.1584,0.167,0.1703,0.1794,0.1827,0.1833,0.1851,0.1826,0.1929,0.194,0.195,0.1976,0.1989,0.1833,0.1832,0.1832,0.1832,0,0.1536,0.1537,0.1548,0.1548,0.1562,0.1579,0.1596,0.1613,0.1618,0.1633,0.1699,0.1747,0.1796,0.183,0.1853,0.1952,0.1937,0.1929,0.1904,0.1967,0.1991,0.2003,0.1837,0.1836,0.1835,0.1834,0,0,0.155,0.1559,0.1562,0.1562,0.1576,0.1592,0.1627,0.166,0.1687,0.1714,0.1759,0.1853,0.1864,0.19,0.194,0.2006,0.2102,0.2004,0.2005,0.2026,0.221,0.2125,0.213,0.2113,0.2115,0.2117,0.2197,0,0.1564,0.1578,0.1581,0.1606,0.1615,0.1627,0.1662,0.1694,0.1722,0.1768,0.1829,0.1888,0.1897,0.1935,0.2001,0.2079,0.2139,0.208,0.2151,0.2153,0.2066,0.2144,0.201,0.2064,0.221,0.2212,0.2213,0,0.1582,0.1586,0.1605,0.1625,0.1631,0.1649,0.1696,0.1728,0.1795,0.1818,0.1874,0.1909,0.2018,0.2011,0.2154,0.2114,0.2168,0.2219,0.2223,0.2134,0.2092,0.2027,0.2081,0.2017,0.2233,0.2231,0.223,0,0.1591,0.1606,0.162,0.1626,0.1651,0.1666,0.1687,0.1741,0.1771,0.1854,0.1877,0.198,0.2029,0.2124,0.2199,0.2194,0.2336,0.2336,0.2306,0.2299,0.2193,0.2172,0.2187,0.2438,0.2438,0.2438,0.2438,0,0.1606,0.1618,0.1624,0.1632,0.1655,0.1672,0.171,0.1746,0.1802,0.184,0.1902,0.1948,0.2063,0.2136,0.2216,0.2283,0.234,0.2328,0.2325,0.2205,0.2185,0.2128,0.2106,0.2441,0.244,0.244,0.2439,0,0.1619,0.1624,0.1636,0.1653,0.1657,0.1676,0.1702,0.1734,0.1783,0.1835,0.1861,0.1942,0.2034,0.2119,0.2268,0.2283,0.2297,0.238,0.2211,0.2187,0.2089,0.2073,0.201,0.1964,0.2378,0.2377,0.2376,0,0.1625,0.1632,0.1642,0.1647,0.1651,0.1672,0.1686,0.1725,0.1751,0.1825,0.185,0.1935,0.1987,0.2132,0.2183,0.2278,0.2239,0.2198,0.2173,0.2075,0.2059,0.1978,0.194,0.2059,0.2055,0.2052,0.205,0,0.1638,0.1642,0.1656,0.1649,0.1656,0.1659,0.1678,0.169,0.1737,0.1765,0.1811,0.1859,0.1957,0.1978,0.2059,0.2106,0.2054,0.2137,0.2097,0.1861,0.1716,0.1671,0.2,0.2022,0.2025,0.2027,0.2029,0.203,0.165,0.1654,0.166,0.1649,0.1653,0.1636,0.162,0.1639,0.165,0.1662,0.1739,0.1766,0.1811,0.1905,0.191,0.1829,0.1884,0.1795,0.1802,0.1744,0.1636,0.1886,0.1861,0.1863,0.1864,0.1865,0.1867,0,0.1643,0.1647,0.1651,0.1628,0.1603,0.1608,0.1602,0.1568,0.1544,0.1583,0.1597,0.163,0.1622,0.1652,0.1611,0.1523,0.1453,0.1471,0.1346,0.1345,0.1622,0.1543,0.1372,0.1372,0.1372,0.1372,0.1372,0.1372,0.1645,0.1638,0.1624,0.157,0.1548,0.1484,0.1461,0.1422,0.1428,0.1396,0.1402,0.1447,0.1519,0.1471,0.1347,0.1293,0.1193,0.1073,0.1141,0.1343,0.1374,0.1403,0.1324,0.111,0.111,0.0775,0.0772,0.077]},{"header":{"parameterUnit":"m.s-1","parameterCategory":2,"la1":30.2991,"la2":30.254,"lo1":-89.0895,"lo2":-89.0444,"dy":0.0017,"dx":0.0017,"nx":28,"ny":28,"refTime":"2025-05-19T21:00:00:Z","depth":"0","parameterNumber":3,"parameterNumberName":"V-component_of_CURRENTS"},"data":[0,0,0,0,0,0,0,0,0,0,0,0,0,0,0,0,0,0,0,0,0,0,0,0,0,0,0,0,0,0,0,0,0,0,0,0,0,0,0,0,0,0,0,0,0,0,0,0,0,0,0,0,0,0,0,0,0,0,0.0215,0.0214,0,0.014,0.014,0.0139,0.0097,0.0097,0.0097,0.0097,0.004,0.0039,0.0037,0,0,0,0,0,0,0,0,0,0,0,0,0,0.0235,0.0235,0.0215,0.0214,0.0213,0.0141,0.014,0.0139,0.0097,0.0097,0.0097,0.0097,0.004,0.0039,0.0037,0,0,0,0,0,0,0,0,0,0,0,0,0,0.02,0.0235,0.0215,0.0184,0.018,0.0141,0.0139,0.0138,0.0097,0.0097,0.0097,0.0097,0.0041,0.0039,0.0037,0.0028,0,0,0.003,0.003,0,0,0,0,0,0,0,0,0.0203,0.02,0.0189,0.0186,0.0182,0.0128,0.0125,0.0102,0.0097,0.0129,0.0097,0.0097,0.0071,0.0066,0.0053,0.0026,0.0023,0.003,0.0029,0.0028,0.0028,0,0,0,0,0,0,0,0.0205,0.0202,0.0186,0.0188,0.0184,0.0143,0.0139,0.012,0.0103,0.0126,0.0123,0.0114,0.0069,0.0055,0.0051,0.0022,0.003,0.0028,0.0027,0.0026,0.0046,0.0047,0,0,0,0,0,0,0.0219,0.0205,0.0188,0.0183,0.0191,0.0144,0.0139,0.0145,0.0102,0.0095,0.0115,0.0113,0.0059,0.0054,0.0049,0.0104,0.0028,0.0026,0.0025,0.0044,0.0046,0.0048,0,0,0,0,0,0,0.022,0.0219,0.0191,0.0191,0.0185,0.0144,0.0151,0.0144,0.0129,0.0093,0.0087,0.0107,0.0058,0.0052,0.0049,0.0099,0.0025,0.0023,0.0042,0.0045,0.0047,0.0171,0,0,0,0,0,0,0.0221,0.022,0.0232,0.0193,0.0185,0.0177,0.0151,0.0143,0.0124,0.0121,0.0085,0.0079,0.0058,0.0052,0.0047,0.0095,0.0022,0.004,0.0043,0.0046,0.0164,0.0177,0.0188,0,0,0,0,0,0.0222,0.0249,0.0233,0.0231,0.0203,0.0178,0.0171,0.014,0.0124,0.0124,0.0107,0.008,0.007,0.0052,0.0045,0.0094,0.0038,0.0042,0.0046,0.0159,0.0175,0.0188,0,0,0,0,0,0,0.0263,0.0246,0.0228,0.0248,0.0215,0.0171,0.0173,0.0143,0.0126,0.0128,0.0092,0.0086,0.0106,0.0077,0.0057,0.0109,0.0054,0.0057,0.0142,0.0156,0.0168,0.0192,0.002,0,0,0,0,0,0.0277,0.0295,0.0256,0.027,0.0261,0.0214,0.02,0.0175,0.0152,0.0143,0.0116,0.0105,0.0117,0.0117,0.0107,0.0126,0.0097,0.0156,0.0168,0.0178,0.0193,0.0194,0.0208,0.0061,0.0061,0.0061,0,0,0.0296,0.0288,0.0298,0.028,0.0256,0.0258,0.0206,0.0192,0.0204,0.0142,0.0155,0.0138,0.0129,0.0161,0.0168,0.0143,0.0203,0.0183,0.0192,0.0202,0.02,0.0214,0.0227,0.0064,0.0063,0.0063,0,0,0.0339,0.0336,0.036,0.0343,0.0313,0.0292,0.029,0.0245,0.024,0.0239,0.022,0.0237,0.0216,0.0242,0.0252,0.0321,0.0263,0.0311,0.0396,0.0397,0.041,0.042,0.0396,0.0403,0.0322,0.0322,0.0322,0,0.0355,0.0382,0.0359,0.0371,0.037,0.0314,0.0331,0.0324,0.0284,0.0295,0.026,0.0278,0.027,0.0343,0.0377,0.0354,0.0322,0.0345,0.0414,0.0424,0.0432,0.0405,0.0411,0.0328,0.0328,0.0327,0.0326,0,0.0408,0.0427,0.0441,0.0449,0.0447,0.045,0.0434,0.0434,0.0415,0.0402,0.044,0.0427,0.0437,0.0452,0.044,0.0512,0.0459,0.0426,0.038,0.0455,0.042,0.0425,0.0338,0.0335,0.0333,0.0332,0,0,0.044,0.0472,0.0474,0.0487,0.0487,0.0484,0.053,0.0545,0.057,0.0553,0.0589,0.0635,0.0605,0.0615,0.0601,0.0621,0.0662,0.0556,0.0553,0.0536,0.0639,0.0606,0.0606,0.063,0.0632,0.0633,0.0589,0,0.0478,0.0523,0.0537,0.0579,0.0596,0.0589,0.0632,0.0645,0.0644,0.0663,0.068,0.0699,0.0675,0.0677,0.0702,0.0664,0.068,0.0676,0.0566,0.0562,0.0528,0.0613,0.0613,0.0574,0.0592,0.0593,0.0594,0,0.0515,0.0542,0.0593,0.0639,0.0648,0.0672,0.0719,0.0748,0.0783,0.0783,0.0812,0.079,0.0839,0.0787,0.0785,0.0773,0.0727,0.0695,0.0691,0.0623,0.0539,0.0503,0.0581,0.0561,0.06,0.0599,0.0599,0,0.0526,0.0579,0.0624,0.0636,0.0681,0.0714,0.0741,0.0781,0.081,0.0849,0.0856,0.089,0.0886,0.086,0.0799,0.0784,0.0766,0.0727,0.0658,0.0652,0.0615,0.0604,0.0668,0.0733,0.0733,0.0733,0.0733,0,0.0552,0.0584,0.0629,0.0645,0.0701,0.073,0.0786,0.0817,0.0861,0.0893,0.0908,0.0927,0.09,0.0877,0.0824,0.0757,0.078,0.0696,0.0656,0.0656,0.065,0.0597,0.0563,0.0731,0.0731,0.0732,0.0732,0,0.0554,0.0581,0.0628,0.0685,0.0701,0.0738,0.0798,0.0834,0.0875,0.0914,0.0926,0.095,0.0924,0.0884,0.083,0.0776,0.0695,0.0686,0.0678,0.0641,0.056,0.0532,0.0482,0.0499,0.0612,0.0611,0.061,0,0.0561,0.0583,0.0643,0.0666,0.0691,0.0743,0.0776,0.083,0.0862,0.0921,0.0936,0.0938,0.0938,0.0859,0.0782,0.0695,0.0659,0.0621,0.0617,0.0586,0.0525,0.0477,0.0493,0.0604,0.0604,0.0603,0.0603,0,0.0573,0.0592,0.0631,0.067,0.0705,0.075,0.0798,0.0823,0.088,0.0916,0.0949,0.096,0.0904,0.0841,0.0737,0.0671,0.0604,0.0606,0.059,0.0555,0.0491,0.0477,0.0581,0.0598,0.0598,0.0599,0.0599,0.0599,0.0581,0.0604,0.0642,0.0679,0.0717,0.075,0.0773,0.0822,0.0869,0.0923,0.0944,0.0987,0.0907,0.0781,0.0693,0.0558,0.0551,0.0516,0.0489,0.0447,0.0467,0.0553,0.0516,0.0516,0.0516,0.0516,0.0516,0,0.0579,0.0603,0.0644,0.0682,0.0709,0.0732,0.078,0.08,0.0838,0.093,0.0965,0.0996,0.0872,0.0763,0.0569,0.0473,0.0448,0.0424,0.0386,0.0416,0.0511,0.0518,0.0462,0.0462,0.0462,0.0462,0.0462,0.0462,0.058,0.0603,0.062,0.0654,0.0679,0.0696,0.0713,0.0756,0.0829,0.0935,0.1023,0.1102,0.1058,0.0633,0.0419,0.038,0.0353,0.0287,0.0303,0.0388,0.0395,0.0403,0.0406,0.0327,0.0327,0.0236,0.0235,0.0234]}],[{"header":{"parameterUnit":"m.s-1","parameterCategory":2,"la1":30.2991,"la2":30.254,"lo1":-89.0895,"lo2":-89.0444,"dy":0.0017,"dx":0.0017,"nx":28,"ny":28,"refTime":"2025-05-19T21:00:00:Z","depth":"2","parameterNumber":2,"parameterNumberName":"U-component_of_CURRENTS"},"data":[0,0,0,0,0,0,0,0,0,0,0,0,0,0,0,0,0,0,0,0,0,0,0,0,0,0,0,0,0,0,0,0,0,0,0,0,0,0,0,0,0,0,0,0,0,0,0,0,0,0,0,0,0,0,0,0,0,0,0.1441,0.1441,0,0.1476,0.1476,0.1477,0.148,0.1479,0.1479,0.1479,0.1526,0.1527,0.1529,0,0,0,0,0,0,0,0,0,0,0,0,0,0.1436,0.1436,0.1441,0.1441,0.1442,0.1476,0.1476,0.1477,0.148,0.1479,0.1479,0.1478,0.1525,0.1527,0.1529,0,0,0,0,0,0,0,0,0,0,0,0,0,0.1451,0.1436,0.1441,0.1448,0.1449,0.1476,0.1476,0.1477,0.148,0.1479,0.1479,0.1478,0.1525,0.1527,0.1529,0.1554,0,0,0.1537,0.1538,0,0,0,0,0,0,0,0,0.145,0.1451,0.1446,0.1447,0.1448,0.1473,0.1492,0.1504,0.148,0.1468,0.1479,0.1478,0.151,0.1514,0.1521,0.1556,0.1559,0.1537,0.1538,0.1539,0.154,0,0,0,0,0,0,0,0.1449,0.145,0.1454,0.1447,0.1448,0.147,0.147,0.1494,0.1491,0.1469,0.1469,0.1474,0.1511,0.1518,0.1522,0.1559,0.1537,0.1539,0.154,0.1541,0.1661,0.1663,0,0,0,0,0,0,0.1443,0.1449,0.1453,0.1455,0.1448,0.147,0.1471,0.1465,0.1491,0.1494,0.1474,0.1474,0.1514,0.1519,0.1523,0.1595,0.1539,0.1541,0.1543,0.1659,0.1661,0.1663,0,0,0,0,0,0,0.1442,0.1442,0.1452,0.1454,0.1457,0.147,0.1464,0.1466,0.1474,0.1495,0.1498,0.1479,0.1514,0.152,0.1556,0.1596,0.1543,0.1545,0.1657,0.166,0.1662,0.1713,0,0,0,0,0,0,0.1442,0.1442,0.144,0.1453,0.1456,0.1475,0.1465,0.1467,0.1478,0.1478,0.1501,0.1504,0.1514,0.1552,0.1558,0.1598,0.1547,0.1655,0.1658,0.1662,0.1709,0.1717,0.1724,0,0,0,0,0,0.1441,0.1452,0.144,0.1441,0.1452,0.1476,0.148,0.1488,0.1479,0.1491,0.1507,0.1504,0.1578,0.1556,0.1562,0.1603,0.1653,0.1657,0.1661,0.1706,0.1716,0.1724,0,0,0,0,0,0,0.1457,0.1453,0.144,0.1449,0.146,0.1477,0.1493,0.149,0.1511,0.151,0.1522,0.1528,0.1576,0.1582,0.1557,0.1648,0.1617,0.1623,0.1649,0.1658,0.1665,0.1663,0.1549,0,0,0,0,0,0.1456,0.1457,0.1459,0.1467,0.1472,0.1478,0.1489,0.1491,0.1509,0.1517,0.1529,0.1556,0.1599,0.1619,0.1647,0.1694,0.1704,0.1726,0.1734,0.174,0.1743,0.1794,0.1807,0.1676,0.1676,0.1676,0,0,0.1469,0.1463,0.1467,0.147,0.1478,0.1493,0.1484,0.1503,0.1521,0.1521,0.1552,0.1577,0.1616,0.1672,0.1695,0.1681,0.1785,0.1745,0.175,0.175,0.18,0.1812,0.1824,0.1679,0.1679,0.1678,0,0,0.1492,0.1485,0.149,0.1497,0.1504,0.1512,0.1516,0.1527,0.1539,0.1569,0.1587,0.1635,0.1675,0.1725,0.1754,0.182,0.1819,0.1828,0.1869,0.1919,0.193,0.194,0.1974,0.1986,0.1836,0.1836,0.1836,0,0.1502,0.1503,0.1501,0.1506,0.1517,0.1519,0.1533,0.1555,0.1576,0.1594,0.1583,0.1672,0.1706,0.1798,0.1831,0.1838,0.1855,0.1831,0.1928,0.1938,0.1947,0.198,0.1992,0.1839,0.1839,0.1838,0.1838,0,0.1524,0.1526,0.1537,0.1536,0.1551,0.157,0.1588,0.1607,0.1614,0.1631,0.1698,0.1748,0.1798,0.1833,0.1858,0.1952,0.1939,0.1928,0.1902,0.1963,0.1994,0.2006,0.1843,0.1842,0.1841,0.184,0,0,0.1539,0.1546,0.155,0.1551,0.1566,0.1583,0.162,0.1656,0.1684,0.1713,0.1759,0.1855,0.1866,0.1902,0.1944,0.2005,0.2099,0.2,0.2001,0.2028,0.22,0.2095,0.2098,0.21,0.2103,0.2105,0.2197,0,0.1553,0.1566,0.1569,0.1595,0.1606,0.1621,0.1658,0.1691,0.172,0.1766,0.1828,0.1887,0.1899,0.1937,0.1999,0.2073,0.2133,0.2074,0.2142,0.2144,0.2039,0.211,0.1877,0.1931,0.2209,0.2211,0.2213,0,0.1571,0.1574,0.1595,0.1616,0.1624,0.1643,0.1694,0.1727,0.1794,0.1817,0.1873,0.1908,0.2015,0.2007,0.2146,0.2104,0.2159,0.2208,0.2212,0.2102,0.2062,0.1916,0.1943,0.2233,0.2232,0.223,0.2229,0,0.1581,0.1596,0.1613,0.162,0.1646,0.1664,0.1687,0.1742,0.1774,0.1853,0.1877,0.1975,0.2026,0.2114,0.2189,0.2183,0.2319,0.2318,0.2275,0.2268,0.2076,0.2047,0.2418,0.2418,0.2418,0.2418,0.2418,0,0.1596,0.1609,0.1617,0.1626,0.1651,0.1671,0.1711,0.1747,0.1803,0.1841,0.1903,0.1946,0.2056,0.2127,0.2205,0.2259,0.2325,0.2294,0.229,0.2087,0.2059,0.2319,0.2306,0.2421,0.242,0.242,0.2419,0,0.1609,0.1615,0.163,0.1649,0.1654,0.1676,0.1705,0.1737,0.1787,0.1839,0.1864,0.1944,0.2029,0.2113,0.2254,0.2258,0.2341,0.2343,0.2084,0.2047,0.226,0.2249,0.2329,0.2326,0.2323,0.2321,0.232,0,0.1615,0.1624,0.1638,0.1644,0.1651,0.1674,0.169,0.173,0.1755,0.1829,0.1853,0.1935,0.1981,0.2108,0.2105,0.2182,0.2297,0.2037,0.1989,0.2266,0.2255,0.2248,0.224,0.1768,0.1762,0.1757,0.1753,0,0.1629,0.1636,0.1653,0.1649,0.1659,0.1663,0.1683,0.1694,0.1741,0.1768,0.1808,0.1851,0.19,0.1838,0.1891,0.1921,0.2001,0.1938,0.2308,0.1812,0.174,0.1728,0.1739,0.1709,0.1713,0.1716,0.1719,0.1721,0.1644,0.1651,0.1661,0.1653,0.1659,0.164,0.1622,0.1639,0.1646,0.1651,0.1722,0.1686,0.1648,0.1592,0.1583,0.1575,0.1738,0.1703,0.1717,0.1737,0.1641,0.1568,0.1486,0.1489,0.1492,0.1494,0.1496,0,0.164,0.1647,0.1654,0.1634,0.1609,0.1613,0.1604,0.1563,0.1532,0.1533,0.1536,0.1307,0.1254,0.1268,0.1155,0.1181,0.1173,0.1182,0.1143,0.1186,0.1224,0.1102,0.0805,0.0803,0.0802,0.08,0,0,0.1646,0.1641,0.1627,0.1573,0.1553,0.1485,0.1458,0.1408,0.1375,0.1259,0.1168,0.1207,0.1192,0.0946,0.0926,0.0861,0.1034,0.0835,0.1378,0.1374,0.1411,0.1501,0.1357,0,0,0,0,0]},{"header":{"parameterUnit":"m.s-1","parameterCategory":2,"la1":30.2991,"la2":30.254,"lo1":-89.0895,"lo2":-89.0444,"dy":0.0017,"dx":0.0017,"nx":28,"ny":28,"refTime":"2025-05-19T21:00:00:Z","depth":"2","parameterNumber":3,"parameterNumberName":"V-component_of_CURRENTS"},"data":[0,0,0,0,0,0,0,0,0,0,0,0,0,0,0,0,0,0,0,0,0,0,0,0,0,0,0,0,0,0,0,0,0,0,0,0,0,0,0,0,0,0,0,0,0,0,0,0,0,0,0,0,0,0,0,0,0,0,0.0082,0.0081,0,0.002,0.0019,0.0018,-0.0013,-0.0013,-0.0013,-0.0013,-0.0063,-0.0064,-0.0065,0,0,0,0,0,0,0,0,0,0,0,0,0,0.0094,0.0095,0.0082,0.0081,0.008,0.002,0.0019,0.0018,-0.0013,-0.0013,-0.0013,-0.0013,-0.0062,-0.0064,-0.0065,0,0,0,0,0,0,0,0,0,0,0,0,0,0.0066,0.0095,0.0082,0.0057,0.0055,0.002,0.0019,0.0018,-0.0013,-0.0013,-0.0013,-0.0013,-0.0062,-0.0064,-0.0066,-0.0078,0,0,-0.0072,-0.0073,0,0,0,0,0,0,0,0,0.0068,0.0066,0.0062,0.0059,0.0056,0.0011,0.0005,-0.0014,-0.0013,0.0013,-0.0013,-0.0013,-0.0037,-0.0041,-0.0053,-0.008,-0.0082,-0.0072,-0.0073,-0.0074,-0.0075,0,0,0,0,0,0,0,0.007,0.0068,0.0057,0.0061,0.0057,0.0023,0.0019,0.0001,-0.0011,0.0011,0.0008,0.0001,-0.0038,-0.0051,-0.0054,-0.0083,-0.0072,-0.0074,-0.0075,-0.0076,-0.0071,-0.007,0,0,0,0,0,0,0.0082,0.007,0.0059,0.0055,0.0062,0.0023,0.0019,0.0026,-0.0011,-0.0017,0.0002,0.0,-0.0047,-0.0052,-0.0056,-0.0011,-0.0074,-0.0076,-0.0077,-0.0073,-0.0071,-0.007,0,0,0,0,0,0,0.0083,0.0082,0.0061,0.006,0.0055,0.0023,0.003,0.0024,0.0013,-0.0018,-0.0024,-0.0003,-0.0048,-0.0053,-0.0057,-0.0016,-0.0077,-0.0079,-0.0074,-0.0072,-0.007,0.0038,0,0,0,0,0,0,0.0084,0.0083,0.0094,0.0062,0.0056,0.005,0.003,0.0023,0.0009,0.0007,-0.0024,-0.0029,-0.0048,-0.0054,-0.0059,-0.002,-0.008,-0.0076,-0.0073,-0.0071,0.0033,0.0044,0.0053,0,0,0,0,0,0.0085,0.0109,0.0095,0.0094,0.0072,0.005,0.0044,0.002,0.0009,0.0009,-0.0005,-0.0028,-0.0042,-0.0055,-0.0061,-0.0021,-0.0077,-0.0074,-0.0071,0.0029,0.0042,0.0053,0,0,0,0,0,0,0.0119,0.0107,0.0091,0.011,0.0082,0.0045,0.0049,0.0023,0.001,0.0013,-0.0019,-0.0024,-0.001,-0.0036,-0.005,-0.0013,-0.006,-0.0058,0.0018,0.003,0.004,0.006,-0.0082,0,0,0,0,0,0.0131,0.0148,0.0115,0.0128,0.0121,0.0082,0.0071,0.0051,0.0032,0.0025,0.0001,-0.001,-0.0004,-0.0004,-0.0016,-0.0002,-0.0031,0.0021,0.0031,0.0039,0.0052,0.0031,0.004,-0.006,-0.006,-0.006,0,0,0.0148,0.0142,0.0151,0.0136,0.0117,0.0118,0.0076,0.0067,0.0073,0.0023,0.0031,0.0017,0.0005,0.0029,0.0034,0.0014,0.0055,0.0043,0.0051,0.0058,0.0035,0.0044,0.0053,-0.0058,-0.0058,-0.0059,0,0,0.0185,0.0184,0.0206,0.0191,0.0167,0.0148,0.0147,0.011,0.0104,0.0101,0.0084,0.0096,0.0077,0.0093,0.0099,0.0153,0.0104,0.0147,0.022,0.02,0.0208,0.0215,0.0204,0.0209,0.0157,0.0157,0.0158,0,0.0201,0.0223,0.0205,0.0216,0.0213,0.0167,0.018,0.0171,0.0137,0.0143,0.0119,0.0125,0.0117,0.0169,0.0202,0.0179,0.0153,0.0179,0.0214,0.022,0.0225,0.0211,0.0215,0.0163,0.0162,0.0162,0.0161,0,0.0244,0.0261,0.0274,0.028,0.0277,0.0279,0.0263,0.0259,0.0243,0.023,0.0254,0.0241,0.0248,0.0258,0.0254,0.0301,0.0267,0.0225,0.0186,0.0241,0.0224,0.0226,0.0171,0.0169,0.0167,0.0166,0,0,0.0274,0.03,0.0303,0.0311,0.031,0.0305,0.0337,0.0343,0.0358,0.0343,0.0367,0.0403,0.0384,0.0389,0.038,0.0381,0.0411,0.0332,0.0328,0.0326,0.037,0.0333,0.0331,0.0367,0.0367,0.0368,0.0348,0,0.0305,0.0341,0.0352,0.0383,0.0395,0.0386,0.0419,0.0423,0.0416,0.0426,0.0435,0.0452,0.0438,0.0447,0.0452,0.0414,0.0419,0.0421,0.0312,0.0309,0.0273,0.0333,0.0312,0.0291,0.035,0.035,0.035,0,0.0335,0.0356,0.0397,0.0429,0.0436,0.0457,0.0485,0.0506,0.0527,0.0525,0.0544,0.0529,0.0567,0.0522,0.0503,0.0499,0.0456,0.042,0.0416,0.0345,0.0276,0.0241,0.0292,0.0353,0.0353,0.0353,0.0352,0,0.0339,0.0383,0.0418,0.0426,0.0462,0.049,0.0512,0.0538,0.0565,0.0586,0.0599,0.0611,0.0623,0.0573,0.0526,0.0507,0.0475,0.0427,0.0357,0.0353,0.0297,0.0288,0.0409,0.0409,0.0409,0.0409,0.0409,0,0.0355,0.038,0.0424,0.0436,0.0486,0.0509,0.0556,0.0577,0.0619,0.0653,0.0654,0.0675,0.0634,0.061,0.0544,0.047,0.0488,0.0388,0.0351,0.0336,0.033,0.0344,0.0337,0.0408,0.0408,0.0408,0.0408,0,0.0351,0.0378,0.0417,0.0467,0.0486,0.0522,0.0586,0.0618,0.0657,0.0699,0.0717,0.0738,0.0709,0.0654,0.0578,0.0501,0.0421,0.0387,0.0382,0.0345,0.0307,0.0306,0.0303,0.0302,0.0301,0.03,0.0299,0,0.0353,0.0371,0.0431,0.0464,0.0492,0.0544,0.0584,0.0632,0.0665,0.0728,0.0751,0.0762,0.075,0.0642,0.0528,0.0413,0.0414,0.0305,0.0269,0.0336,0.0299,0.03,0.03,0.0243,0.0242,0.0241,0.024,0,0.0355,0.0379,0.042,0.048,0.0526,0.057,0.0627,0.0656,0.0711,0.0749,0.0788,0.0789,0.0713,0.0597,0.0461,0.0374,0.032,0.0279,0.0352,0.027,0.0276,0.0242,0.0244,0.0232,0.0233,0.0233,0.0234,0.0234,0.0366,0.0398,0.045,0.0503,0.0555,0.0593,0.0615,0.0667,0.0715,0.0764,0.0785,0.0774,0.0649,0.0461,0.0348,0.0251,0.0261,0.0188,0.0192,0.0197,0.0191,0.0194,0.0134,0.0134,0.0134,0.0135,0.0135,0,0.0376,0.0416,0.0467,0.0524,0.0559,0.059,0.0642,0.0651,0.0682,0.0747,0.0773,0.0615,0.051,0.041,0.0252,0.0131,0.0135,0.0095,0.0121,0.0129,0.0137,0.0129,0.0055,0.0054,0.0054,0.0054,0,0,0.039,0.0425,0.0443,0.0496,0.0543,0.0569,0.0586,0.061,0.0652,0.0665,0.0673,0.0667,0.0528,0.0369,0.0231,0.0163,0.0175,0.0141,0.0212,0.0267,0.0276,0.0191,0.0187,0,0,0,0,0]}],[{"header":{"parameterUnit":"m.s-1","parameterCategory":2,"la1":30.2991,"la2":30.254,"lo1":-89.0895,"lo2":-89.0444,"dy":0.0017,"dx":0.0017,"nx":28,"ny":28,"refTime":"2025-05-19T21:00:00:Z","depth":"4","parameterNumber":2,"parameterNumberName":"U-component_of_CURRENTS"},"data":[0,0,0,0,0,0,0,0,0,0,0,0,0,0,0,0,0,0,0,0,0,0,0,0,0,0,0,0,0,0,0,0,0,0,0,0,0,0,0,0,0,0,0,0,0,0,0,0,0,0,0,0,0,0,0,0,0,0,0.0199,0.02,0,0.0218,0.0218,0.0218,0.0253,0.0254,0.0255,0.0256,0.0277,0.0277,0.0276,0,0,0,0,0,0,0,0,0,0,0,0,0,0.0146,0.0147,0.0199,0.02,0.02,0.0218,0.0218,0.0218,0.0253,0.0254,0.0255,0.0256,0.0277,0.0277,0.0276,0,0,0,0,0,0,0,0,0,0,0,0,0,0.0165,0.0147,0.0199,0.0222,0.0224,0.0218,0.0218,0.0218,0.0253,0.0254,0.0255,0.0257,0.0277,0.0277,0.0276,0.0246,0,0,0.0275,0.0275,0,0,0,0,0,0,0,0,0.0164,0.0167,0.0218,0.022,0.0223,0.0237,0.0207,0.0228,0.0252,0.0239,0.0256,0.0257,0.0264,0.0265,0.0262,0.0247,0.0248,0.0275,0.0275,0.0275,0.0274,0,0,0,0,0,0,0,0.0163,0.0166,0.0204,0.0218,0.0221,0.0214,0.0219,0.0211,0.0242,0.024,0.0244,0.0249,0.0265,0.0262,0.0263,0.0249,0.0275,0.0275,0.0274,0.0274,0.045,0.0455,0,0,0,0,0,0,0.0167,0.0165,0.0204,0.0205,0.0199,0.0214,0.0219,0.0229,0.0242,0.0246,0.0248,0.0251,0.0262,0.0263,0.0264,0.0416,0.0275,0.0274,0.0274,0.0445,0.0451,0.0457,0,0,0,0,0,0,0.0165,0.017,0.0203,0.0187,0.0191,0.0215,0.0225,0.0228,0.0298,0.0248,0.0252,0.0322,0.0263,0.0264,0.0329,0.041,0.0274,0.0274,0.044,0.0447,0.0454,0.06,0,0,0,0,0,0,0.0164,0.0169,0.0194,0.0187,0.0192,0.024,0.0224,0.0228,0.0295,0.0301,0.0311,0.031,0.0265,0.033,0.0329,0.0407,0.0273,0.0433,0.0443,0.0452,0.0589,0.0611,0.0631,0,0,0,0,0,0.0162,0.0163,0.0195,0.02,0.022,0.0242,0.0245,0.0262,0.0299,0.0332,0.0359,0.0314,0.0389,0.0333,0.033,0.041,0.0429,0.044,0.0451,0.058,0.0607,0.063,0,0,0,0,0,0,0.0145,0.0167,0.0201,0.0212,0.0255,0.025,0.0275,0.0311,0.0359,0.0396,0.0356,0.0357,0.0451,0.042,0.036,0.0497,0.041,0.0421,0.0509,0.0534,0.0555,0.0436,0.0273,0,0,0,0,0,0.0158,0.0167,0.0208,0.0221,0.0256,0.0294,0.0316,0.0355,0.0384,0.0411,0.0439,0.0469,0.0481,0.0502,0.0515,0.0574,0.0482,0.0636,0.0657,0.0674,0.0582,0.0507,0.0509,0.0493,0.0493,0.0493,0,0,0.0143,0.0165,0.0167,0.022,0.0256,0.0295,0.0312,0.0384,0.0427,0.0404,0.0507,0.0548,0.0519,0.0592,0.0632,0.0582,0.0663,0.0688,0.0703,0.0598,0.0518,0.0518,0.0518,0.0501,0.0499,0.0498,0,0,0.0111,0.0167,0.0175,0.0224,0.0313,0.0341,0.0389,0.0475,0.0533,0.064,0.0635,0.0703,0.0777,0.0737,0.0724,0.0864,0.0781,0.0942,0.0934,0.0869,0.0866,0.0861,0.086,0.0854,0.0945,0.0945,0.0946,0,0.0116,0.0121,0.0182,0.0221,0.0249,0.0375,0.0406,0.0479,0.0587,0.0603,0.0706,0.0775,0.081,0.0768,0.0856,0.0898,0.087,0.0838,0.0885,0.0878,0.0871,0.0868,0.0859,0.0954,0.0953,0.0952,0.0951,0,0.0088,0.012,0.0138,0.0218,0.0266,0.0325,0.0432,0.053,0.0661,0.0707,0.0795,0.086,0.0858,0.0953,0.0954,0.094,0.095,0.0922,0.0796,0.0879,0.0877,0.0864,0.0966,0.0963,0.096,0.0958,0,0,0.0046,0.0101,0.0118,0.0149,0.0279,0.0316,0.0403,0.0466,0.0503,0.0683,0.0688,0.0807,0.0858,0.0843,0.089,0.0875,0.091,0.0905,0.0898,0.0858,0.0817,0.082,0.0807,0.09,0.0897,0.0894,0.0874,0,0.0024,0.0045,0.0083,0.0136,0.0171,0.0277,0.0325,0.0413,0.0527,0.0592,0.066,0.0722,0.0811,0.0867,0.0857,0.0886,0.0866,0.0918,0.0774,0.0769,0.0721,0.0786,0.0882,0.0864,0.0861,0.0859,0.0857,0,0.0002,0.0019,0.0034,0.0085,0.0113,0.0168,0.0246,0.0313,0.039,0.0476,0.0513,0.0588,0.061,0.0703,0.0687,0.0731,0.076,0.0788,0.0786,0.0683,0.0742,0.074,0.0833,0.0835,0.0837,0.0839,0.084,0,-0.0057,-0.001,-0.0012,0.0018,0.0101,0.013,0.0195,0.0278,0.0334,0.0399,0.0456,0.0457,0.0531,0.0511,0.0638,0.066,0.0626,0.0644,0.0644,0.0649,0.0579,0.0582,0.0555,0.0555,0.0555,0.0555,0.0555,0,-0.0095,-0.0083,-0.0027,-0.0007,0.0033,0.0101,0.0157,0.0218,0.0285,0.0331,0.04,0.0437,0.0494,0.0522,0.057,0.059,0.0559,0.0602,0.0611,0.067,0.0682,0.0577,0.058,0.0555,0.0555,0.0555,0.0555,0,-0.0135,-0.012,-0.0089,-0.0017,0.0016,0.007,0.0182,0.0208,0.0281,0.0336,0.0363,0.0435,0.0465,0.0506,0.0515,0.0534,0.0528,0.0531,0.0632,0.0655,0.0614,0.0626,0.0488,0.0487,0.0486,0.0486,0.0485,0,-0.0164,-0.0159,-0.0072,-0.004,0.0012,0.0093,0.0138,0.0223,0.0251,0.0341,0.0349,0.0405,0.0449,0.0443,0.0489,0.0497,0.0506,0.0512,0.0505,0.0567,0.0591,0.0604,0.0617,0.0484,0.0484,0.0484,0.0484,0,-0.0189,-0.0146,-0.011,-0.0048,0.0015,0.0062,0.0135,0.0149,0.023,0.0298,0.0328,0.0364,0.0389,0.0411,0.0437,0.0448,0.0506,0.0505,0.0506,0.0498,0.0561,0.0589,0.0602,0.0481,0.0482,0.0482,0.0482,0,-0.0182,-0.0153,-0.0108,-0.0045,-0.0002,0.001,0.0059,0.0094,0.0136,0.0231,0.0246,0.0304,0.0368,0.0387,0.0409,0.042,0.0409,0.0411,0.0417,0.042,0.0414,0.0484,0.0349,0,0,0,0,0,-0.0176,-0.0156,-0.0118,-0.0057,-0.0031,-0.0011,0.0031,0.0067,0.0148,0.0152,0.0199,0.0223,0.0276,0.0311,0.0305,0.0374,0.0401,0.037,0.0402,0.0468,0.0471,0.0474,0,0,0,0,0,0,-0.0173,-0.0142,-0.0125,-0.0104,-0.008,-0.0057,-0.0047,0.0005,0.0006,0.0098,0.0108,0.0218,0.0245,0.0264,0.0301,0.0316,0.0335,0.0425,0.0424,0.0467,0.0469,0.0471,0.0476,0,0,0,0,0]},{"header":{"parameterUnit":"m.s-1","parameterCategory":2,"la1":30.2991,"la2":30.254,"lo1":-89.0895,"lo2":-89.0444,"dy":0.0017,"dx":0.0017,"nx":28,"ny":28,"refTime":"2025-05-19T21:00:00:Z","depth":"4","parameterNumber":3,"parameterNumberName":"V-component_of_CURRENTS"},"data":[0,0,0,0,0,0,0,0,0,0,0,0,0,0,0,0,0,0,0,0,0,0,0,0,0,0,0,0,0,0,0,0,0,0,0,0,0,0,0,0,0,0,0,0,0,0,0,0,0,0,0,0,0,0,0,0,0,0,-0.0167,-0.0167,0,-0.0174,-0.0174,-0.0175,-0.0191,-0.019,-0.019,-0.019,-0.0304,-0.0307,-0.031,0,0,0,0,0,0,0,0,0,0,0,0,0,-0.0142,-0.0143,-0.0167,-0.0167,-0.0166,-0.0174,-0.0174,-0.0175,-0.0191,-0.019,-0.019,-0.019,-0.0303,-0.0307,-0.031,0,0,0,0,0,0,0,0,0,0,0,0,0,-0.0156,-0.0144,-0.0167,-0.0172,-0.0172,-0.0174,-0.0174,-0.0175,-0.0191,-0.019,-0.019,-0.019,-0.0302,-0.0306,-0.0311,-0.0343,0,0,-0.0325,-0.0327,0,0,0,0,0,0,0,0,-0.0155,-0.0158,-0.0171,-0.0171,-0.0171,-0.0177,-0.0207,-0.0235,-0.0191,-0.0188,-0.019,-0.019,-0.0269,-0.0276,-0.0283,-0.0348,-0.0353,-0.0326,-0.0328,-0.033,-0.0332,0,0,0,0,0,0,0,-0.0154,-0.0157,-0.0174,-0.0171,-0.0171,-0.0164,-0.0167,-0.0212,-0.0235,-0.0188,-0.0188,-0.0182,-0.027,-0.0278,-0.0286,-0.0354,-0.0325,-0.033,-0.0332,-0.0334,-0.0512,-0.0514,0,0,0,0,0,0,-0.0146,-0.0157,-0.0174,-0.0174,-0.0158,-0.0165,-0.0168,-0.0179,-0.0232,-0.0238,-0.0182,-0.0183,-0.027,-0.028,-0.029,-0.037,-0.033,-0.0335,-0.0337,-0.051,-0.0513,-0.0515,0,0,0,0,0,0,-0.0146,-0.0148,-0.0174,-0.0161,-0.0163,-0.0165,-0.0178,-0.0179,-0.0215,-0.0225,-0.0234,-0.0218,-0.027,-0.0283,-0.0356,-0.0373,-0.0337,-0.0341,-0.0508,-0.0511,-0.0514,-0.0505,0,0,0,0,0,0,-0.0146,-0.0149,-0.0181,-0.0161,-0.0163,-0.0196,-0.0178,-0.0179,-0.0207,-0.0209,-0.0259,-0.0267,-0.0271,-0.0349,-0.036,-0.0379,-0.0345,-0.0506,-0.0509,-0.0513,-0.0503,-0.0508,-0.0511,0,0,0,0,0,-0.0145,-0.0175,-0.0183,-0.0186,-0.0199,-0.0197,-0.02,-0.0202,-0.0209,-0.0233,-0.0267,-0.0267,-0.0379,-0.0354,-0.0367,-0.0388,-0.0504,-0.0508,-0.0512,-0.0501,-0.0507,-0.0511,0,0,0,0,0,0,-0.0181,-0.0179,-0.0187,-0.0218,-0.0219,-0.0199,-0.0223,-0.0224,-0.0269,-0.0281,-0.0298,-0.031,-0.0372,-0.0396,-0.0368,-0.0453,-0.044,-0.0447,-0.0427,-0.0433,-0.0437,-0.0446,-0.0349,0,0,0,0,0,-0.0204,-0.0231,-0.0219,-0.0249,-0.0253,-0.0249,-0.0258,-0.0254,-0.0272,-0.0292,-0.0315,-0.0356,-0.0396,-0.0429,-0.0461,-0.0522,-0.0506,-0.0545,-0.0549,-0.0552,-0.0571,-0.0567,-0.0571,-0.0529,-0.0529,-0.0529,0,0,-0.0221,-0.0228,-0.0242,-0.0259,-0.0264,-0.0274,-0.0257,-0.0272,-0.0288,-0.0301,-0.035,-0.0372,-0.0416,-0.0465,-0.0497,-0.0492,-0.0548,-0.0557,-0.0559,-0.0577,-0.0571,-0.0575,-0.0578,-0.0532,-0.0531,-0.0531,0,0,-0.0243,-0.0281,-0.03,-0.0312,-0.032,-0.0316,-0.0328,-0.0321,-0.0336,-0.0369,-0.0386,-0.0434,-0.0479,-0.0518,-0.0543,-0.0604,-0.0565,-0.0608,-0.0642,-0.0636,-0.0639,-0.0641,-0.0578,-0.0575,-0.0615,-0.0615,-0.0615,0,-0.0264,-0.0282,-0.0306,-0.0325,-0.0329,-0.0339,-0.0345,-0.037,-0.0387,-0.0393,-0.0385,-0.0456,-0.0504,-0.0572,-0.0597,-0.0613,-0.0577,-0.061,-0.0637,-0.0639,-0.0642,-0.0577,-0.0574,-0.0615,-0.0615,-0.0615,-0.0615,0,-0.0284,-0.031,-0.0323,-0.0352,-0.0374,-0.0378,-0.0398,-0.0422,-0.0424,-0.0424,-0.0469,-0.0518,-0.0559,-0.0581,-0.0614,-0.0668,-0.0621,-0.063,-0.0612,-0.0645,-0.0575,-0.0571,-0.0615,-0.0615,-0.0615,-0.0615,0,0,-0.0279,-0.0321,-0.0328,-0.0321,-0.0378,-0.0369,-0.043,-0.0444,-0.0445,-0.0481,-0.0472,-0.0581,-0.0592,-0.0628,-0.0669,-0.0689,-0.0675,-0.0676,-0.0675,-0.0591,-0.0606,-0.0555,-0.0545,-0.0672,-0.0672,-0.0673,-0.0532,0,-0.0272,-0.0272,-0.0324,-0.0331,-0.0314,-0.0368,-0.0405,-0.0437,-0.0449,-0.045,-0.0516,-0.0546,-0.0616,-0.0631,-0.0668,-0.067,-0.0674,-0.071,-0.061,-0.0606,-0.0539,-0.0544,-0.0675,-0.0529,-0.0528,-0.0527,-0.0527,0,-0.0256,-0.0251,-0.0246,-0.0254,-0.0259,-0.0304,-0.0322,-0.0358,-0.041,-0.0417,-0.0476,-0.0504,-0.0589,-0.0617,-0.0649,-0.0658,-0.0653,-0.0643,-0.0637,-0.0599,-0.0551,-0.0507,-0.052,-0.052,-0.0521,-0.0521,-0.0522,0,-0.0151,-0.0186,-0.0164,-0.0175,-0.0213,-0.025,-0.0296,-0.0355,-0.0359,-0.0426,-0.0405,-0.0489,-0.0509,-0.0541,-0.0557,-0.06,-0.0514,-0.0563,-0.0502,-0.0494,-0.0582,-0.0582,-0.0576,-0.0576,-0.0576,-0.0577,-0.0577,0,-0.0074,-0.0055,-0.0125,-0.0103,-0.0096,-0.0182,-0.0195,-0.0245,-0.0303,-0.0274,-0.0406,-0.0364,-0.0493,-0.0459,-0.0494,-0.0458,-0.0465,-0.0506,-0.0469,-0.0576,-0.0578,-0.0575,-0.0577,-0.0571,-0.0572,-0.0573,-0.0574,0,0.0056,0.0018,0.005,-0.001,-0.004,-0.0047,-0.0143,-0.0122,-0.0226,-0.019,-0.0217,-0.0265,-0.0254,-0.0311,-0.0315,-0.0357,-0.0338,-0.0318,-0.0361,-0.0328,-0.0336,-0.0339,-0.0267,-0.0264,-0.0262,-0.026,-0.0259,0,0.0132,0.0159,0.0125,0.0132,0.0086,0.0042,0.0036,-0.0073,-0.0051,-0.0086,-0.002,-0.0051,-0.0079,-0.0033,-0.0117,-0.0161,-0.0199,-0.0181,-0.0367,-0.034,-0.0311,-0.0318,-0.0325,-0.0255,-0.0255,-0.0254,-0.0253,0,0.0263,0.0233,0.0249,0.0262,0.0247,0.0263,0.0223,0.0225,0.0146,0.0105,0.0127,0.0065,0.0101,0.0027,-0.0004,-0.0038,-0.0203,-0.016,-0.0168,-0.0344,-0.0324,-0.03,-0.0309,-0.0246,-0.0247,-0.0247,-0.0248,0,0.0331,0.0357,0.0351,0.0358,0.0389,0.0416,0.0384,0.0369,0.0344,0.0252,0.0315,0.0236,0.019,0.0107,0.0119,0.0044,-0.0037,-0.0107,-0.012,-0.013,-0.0172,-0.0133,0.0041,0,0,0,0,0,0.0387,0.0397,0.0435,0.0438,0.0495,0.0496,0.0499,0.0462,0.0398,0.0426,0.032,0.0337,0.0229,0.0214,0.0141,0.0151,-0.0026,0.0067,-0.0109,-0.0202,-0.0211,-0.0286,0,0,0,0,0,0,0.0409,0.0447,0.0445,0.0506,0.0526,0.0581,0.0578,0.0546,0.0526,0.0447,0.0403,0.0328,0.025,0.0268,0.0146,0.0128,0.0006,0.0013,0.0012,-0.0197,-0.0205,-0.0213,-0.0292,0,0,0,0,0]}]]